Tracking 21992 objects as of 27-Nov-2020
HD Live streaming from Space Station
objects crossing your sky now

METEOR M2-2

Track METEOR M2-2 now!
10-day predictions
METEOR M2-2 is classified as:


NORAD ID: 44387
Int'l Code: 2019-038A
Perigee: 818.4 km
Apogee: 821.7 km
Inclination: 98.6 °
Period: 101.1 minutes
Semi major axis: 7191 km
RCS: Unknown
Launch date: July 5, 2019
Source: Commonwealth of Independent States (former USSR) (CIS)
Launch site: VOSTOCHNY COSMODROME (VOSTO)

Uplink (MHz):
Downlink (MHz): 137.100/137.900
Beacon (MHz):
Mode: 72Kbps QPSK
Call sign:
Status:

aabbcc
Your satellite tracking list
Your tracking list is empty




NASA's NSSDC Master Catalog

Two Line Element Set (TLE):
1 44387U 19038A   20332.48737829 -.00000011  00000-0  14113-4 0  9992
2 44387  98.6418 289.4613 0002262  99.5281 260.6150 14.23683249 72734
Source of the keplerian elements: AFSPC